TimeMDT,TemperatureF,Dew PointF,Humidity,Sea Level PressureIn,VisibilityMPH,Wind Direction,Wind SpeedMPH,Gust SpeedMPH,PrecipitationIn,Events,Conditions,WindDirDegrees,DateUTC
12:15 AM,39.2,35.2,86,30.26,10.0,Calm,Calm,-,N/A,,Mostly Cloudy,0,2013-10-24 06:15:00
12:35 AM,38.8,35.6,88,30.27,10.0,Calm,Calm,-,N/A,,Overcast,0,2013-10-24 06:35:00
12:55 AM,38.7,35.6,89,30.27,10.0,SW,4.6,-,N/A,,Overcast,230,2013-10-24 06:55:00
1:15 AM,39.2,36.0,88,30.28,10.0,WSW,3.5,-,N/A,,Overcast,250,2013-10-24 07:15:00
1:35 AM,39.2,36.1,89,30.28,10.0,Calm,Calm,-,N/A,,Mostly Cloudy,0,2013-10-24 07:35:00
1:55 AM,38.7,35.6,89,30.28,10.0,West,4.6,-,N/A,,Mostly Cloudy,270,2013-10-24 07:55:00
2:15 AM,37.6,35.1,91,30.29,10.0,Calm,Calm,-,N/A,,Mostly Cloudy,0,2013-10-24 08:15:00
2:35 AM,37.4,34.9,91,30.29,10.0,Calm,Calm,-,N/A,,Overcast,0,2013-10-24 08:35:00
2:55 AM,37.6,35.2,91,30.29,10.0,Calm,Calm,-,N/A,,Mostly Cloudy,0,2013-10-24 08:55:00
3:15 AM,36.9,34.7,92,30.29,10.0,Calm,Calm,-,N/A,,Overcast,0,2013-10-24 09:15:00
3:35 AM,36.5,34.7,93,30.29,10.0,Calm,Calm,-,N/A,,Mostly Cloudy,0,2013-10-24 09:35:00
3:55 AM,35.6,33.6,92,30.29,10.0,Calm,Calm,-,N/A,,Mostly Cloudy,0,2013-10-24 09:55:00
4:15 AM,34.9,33.1,93,30.29,10.0,WSW,3.5,-,N/A,,Overcast,250,2013-10-24 10:15:00
4:35 AM,34.0,32.5,94,30.29,10.0,WNW,3.5,-,N/A,,Overcast,290,2013-10-24 10:35:00
4:55 AM,34.9,33.8,96,30.29,10.0,Calm,Calm,-,N/A,,Overcast,0,2013-10-24 10:55:00
5:15 AM,34.7,33.3,94,30.29,10.0,WSW,3.5,-,N/A,,Overcast,240,2013-10-24 11:15:00
5:35 AM,34.9,33.3,94,30.29,10.0,Calm,Calm,-,N/A,,Overcast,0,2013-10-24 11:35:00
5:55 AM,35.2,33.8,94,30.30,10.0,Calm,Calm,-,N/A,,Overcast,0,2013-10-24 11:55:00
6:15 AM,35.6,34.0,94,30.31,10.0,Calm,Calm,-,N/A,,Overcast,0,2013-10-24 12:15:00
6:35 AM,36.0,34.2,93,30.31,10.0,Calm,Calm,-,N/A,,Overcast,0,2013-10-24 12:35:00
6:55 AM,35.4,33.3,92,30.31,10.0,Calm,Calm,-,N/A,,Overcast,0,2013-10-24 12:55:00
7:15 AM,35.6,33.8,93,30.32,10.0,Calm,Calm,-,N/A,,Overcast,0,2013-10-24 13:15:00
7:35 AM,35.6,33.8,93,30.32,10.0,Calm,Calm,-,N/A,,Overcast,0,2013-10-24 13:35:00
7:55 AM,36.0,34.0,93,30.33,10.0,Calm,Calm,-,N/A,,Overcast,0,2013-10-24 13:55:00
8:15 AM,36.3,34.0,91,30.34,10.0,Calm,Calm,-,N/A,,Overcast,0,2013-10-24 14:15:00
8:35 AM,36.9,34.3,91,30.34,10.0,Calm,Calm,-,N/A,,Overcast,0,2013-10-24 14:35:00
8:55 AM,37.8,34.9,89,30.35,10.0,Calm,Calm,-,N/A,,Overcast,0,2013-10-24 14:55:00
9:15 AM,39.2,35.8,88,30.35,10.0,Calm,Calm,-,N/A,,Overcast,0,2013-10-24 15:15:00
9:35 AM,41.2,36.5,83,30.35,10.0,Calm,Calm,-,N/A,,Overcast,0,2013-10-24 15:35:00
9:55 AM,43.3,37.0,78,30.35,10.0,Calm,Calm,-,N/A,,Overcast,0,2013-10-24 15:55:00
10:15 AM,45.5,36.5,71,30.35,10.0,SSE,6.9,-,N/A,,Overcast,160,2013-10-24 16:15:00
10:35 AM,46.4,37.2,70,30.35,10.0,South,8.1,-,N/A,,Overcast,170,2013-10-24 16:35:00
10:55 AM,46.8,37.2,69,30.35,10.0,South,9.2,-,N/A,,Overcast,190,2013-10-24 16:55:00
11:15 AM,46.8,37.8,71,30.35,10.0,South,6.9,-,N/A,,Overcast,180,2013-10-24 17:15:00
11:35 AM,46.9,38.5,72,30.35,10.0,South,6.9,-,N/A,,Overcast,180,2013-10-24 17:35:00
11:55 AM,47.5,38.5,71,30.34,10.0,South,9.2,-,N/A,,Overcast,180,2013-10-24 17:55:00
12:15 PM,48.2,38.7,70,30.33,10.0,South,9.2,-,N/A,,Overcast,180,2013-10-24 18:15:00
12:35 PM,49.3,39.0,68,30.33,10.0,SSW,9.2,-,N/A,,Overcast,200,2013-10-24 18:35:00
12:55 PM,50.0,39.0,66,30.32,10.0,South,9.2,-,N/A,,Overcast,180,2013-10-24 18:55:00
1:15 PM,50.4,38.7,64,30.31,10.0,South,9.2,-,N/A,,Overcast,190,2013-10-24 19:15:00
1:35 PM,51.1,38.7,63,30.31,10.0,South,5.8,-,N/A,,Overcast,170,2013-10-24 19:35:00
1:55 PM,50.9,38.7,63,30.29,10.0,South,8.1,-,N/A,,Overcast,180,2013-10-24 19:55:00
2:15 PM,51.3,38.7,62,30.29,10.0,South,6.9,-,N/A,,Overcast,190,2013-10-24 20:15:00
2:35 PM,51.3,38.7,62,30.28,10.0,South,5.8,-,N/A,,Overcast,170,2013-10-24 20:35:00
2:55 PM,52.2,38.7,60,30.27,10.0,SSE,6.9,-,N/A,,Overcast,160,2013-10-24 20:55:00
3:15 PM,52.9,38.8,59,30.27,10.0,South,5.8,-,N/A,,Mostly Cloudy,170,2013-10-24 21:15:00
3:35 PM,54.0,38.8,57,30.27,10.0,South,8.1,-,N/A,,Scattered Clouds,170,2013-10-24 21:35:00
3:55 PM,54.1,38.7,56,30.26,10.0,SE,9.2,-,N/A,,Clear,140,2013-10-24 21:55:00
4:15 PM,54.1,38.7,56,30.26,10.0,SE,4.6,-,N/A,,Clear,130,2013-10-24 22:15:00
4:35 PM,54.7,39.0,56,30.26,10.0,SSE,9.2,-,N/A,,Clear,160,2013-10-24 22:35:00
4:55 PM,53.6,38.5,57,30.25,10.0,SSE,9.2,-,N/A,,Clear,150,2013-10-24 22:55:00
5:15 PM,52.9,38.3,58,30.26,10.0,SSE,9.2,-,N/A,,Clear,150,2013-10-24 23:15:00
5:35 PM,51.6,38.5,61,30.26,10.0,SSE,9.2,-,N/A,,Clear,150,2013-10-24 23:35:00
5:55 PM,49.6,38.3,65,30.26,10.0,SE,5.8,-,N/A,,Clear,140,2013-10-24 23:55:00
6:15 PM,47.8,37.9,69,30.27,10.0,SE,5.8,-,N/A,,Clear,130,2013-10-25 00:15:00
6:35 PM,46.4,37.8,72,30.28,10.0,SE,8.1,-,N/A,,Clear,130,2013-10-25 00:35:00
6:55 PM,44.8,37.4,75,30.28,10.0,ESE,6.9,-,N/A,,Clear,110,2013-10-25 00:55:00
7:15 PM,43.5,36.9,77,30.29,10.0,East,6.9,-,N/A,,Clear,90,2013-10-25 01:15:00
7:35 PM,42.8,36.9,80,30.29,10.0,ESE,4.6,-,N/A,,Clear,110,2013-10-25 01:35:00
7:55 PM,42.3,36.5,80,30.29,10.0,SE,3.5,-,N/A,,Clear,130,2013-10-25 01:55:00
8:15 PM,41.7,36.0,80,30.29,10.0,SSE,5.8,-,N/A,,Clear,160,2013-10-25 02:15:00
8:35 PM,41.9,36.5,81,30.29,10.0,Calm,Calm,-,N/A,,Clear,0,2013-10-25 02:35:00
8:55 PM,41.2,36.0,82,30.30,10.0,Calm,Calm,-,N/A,,Clear,0,2013-10-25 02:55:00
9:15 PM,41.0,35.8,82,30.30,10.0,Calm,Calm,-,N/A,,Clear,0,2013-10-25 03:15:00
9:35 PM,40.8,35.8,82,30.31,10.0,Calm,Calm,-,N/A,,Clear,0,2013-10-25 03:35:00
9:55 PM,41.0,36.0,82,30.31,10.0,Calm,Calm,-,N/A,,Clear,0,2013-10-25 03:55:00
10:15 PM,41.0,35.8,82,30.31,10.0,South,9.2,-,N/A,,Clear,170,2013-10-25 04:15:00
10:35 PM,40.1,35.6,84,30.31,10.0,Calm,Calm,-,N/A,,Clear,0,2013-10-25 04:35:00
10:55 PM,39.9,35.2,83,30.31,10.0,Calm,Calm,-,N/A,,Clear,0,2013-10-25 04:55:00
11:15 PM,39.0,35.1,86,30.31,10.0,Calm,Calm,-,N/A,,Clear,0,2013-10-25 05:15:00
11:35 PM,38.7,34.9,86,30.30,10.0,Calm,Calm,-,N/A,,Clear,0,2013-10-25 05:35:00
11:55 PM,39.2,34.9,84,30.29,10.0,SSW,3.5,-,N/A,,Clear,200,2013-10-25 05:55:00